Regional Weather Roundup
Issued by NWS Jackson, KY

Home | Current Version | Previous Version | Text Only | Print | Product List | Glossary On
Versions: 1 2 3 4 5 6 7 8 9 10 11 12 13 14 15 16 17 18 19 20 21 22 23 24 25 26 27 28 29 30 31 32 33 34 35 36 37 38 39 40 41 42 43 44 45 46 47 48 49 50
000
ASUS43 KJKL 270510
RWRJKL

EAST KENTUCKY HOURLY WEATHER ROUNDUP
NATIONAL WEATHER SERVICE JACKSON KY
100 AM EDT SAT AUG 27 2016

NOTE: "FAIR" INDICATES FEW OR NO CLOUDS BELOW 12,000 FEET WITH
NO SIGNIFICANT WEATHER AND/OR OBSTRUCTIONS TO VISIBILITY.

* THESE REPORTS ARE NOT UNDER NWS QUALITY CONTROL AND MAY NOT
  REPORT WEATHER SUCH AS PRECIPITATION AND FOG.

KYZ079-080-083-085-087-088-110-112-115-119-120-270600
...EASTERN KENTUCKY...

CITY           SKY/WX    TMP DP  RH WIND       PRES   REMARKS
JACKSON        CLEAR     75  70  84 CALM      30.15S
LONDON         CLEAR     74  68  81 CALM      30.14R
SOMERSET*      CLOUDY    72  68  88 CALM      30.14R
MONTICELLO*    PTCLDY   N/A N/A N/A VRB5      30.14R
WILLIAMSBURG*  CLEAR     72  72 100 CALM      30.13F
MIDDLESBORO*   CLEAR     73  72  96 CALM      30.15S
HARLAN APT*      N/A     70  68  94 CALM      30.18S
PIKE CO APT*     N/A     75  73  92 CALM      30.16S
BIG SANDY APT* CLEAR     73  73  99 CALM      30.15S FOG
MOREHEAD APT*  CLEAR     75  70  83 CALM      30.15R
$$

KYZ035-036-041-042-044-050-067-078-099-270600
...CENTRAL KENTUCKY...

CITY           SKY/WX    TMP DP  RH WIND       PRES   REMARKS
MT STERLING*   CLEAR     72  70  94 CALM      30.15S
FLEMING/MASON* CLEAR     74  73  96 SE5       30.12F
DANVILLE*      CLOUDY    70  70 100 CALM      30.14R
LEXINGTON      CLOUDY    77  69  76 E3        30.12S
FRANKFORT      PTCLDY    75  71  87 CALM      30.10S
LOUISVILLE     CLOUDY    80  72  76 N5        30.09R
LEBANON*         N/A     75  70  83 E3        30.12S
GLASGOW*       CLOUDY    75  75 100 E3        30.11S
BOWLING GREEN  MOCLDY    80  75  84 W5        30.11R
$$

KYZ091>093-OHZ055-061-077-WVZ005-015-034-035-042-270600
...SOUTHERN OHIO/WEST VIRGINIA...

CITY           SKY/WX    TMP DP  RH WIND       PRES   REMARKS
COVINGTON      CLOUDY    76  72  87 CALM      30.11F
COLUMBUS       CLEAR     74  66  76 NE5       30.12F
DAYTON         CLOUDY    72  69  90 E3        30.14F
WILMINGTON     CLOUDY    73  71  93 E3        30.13R
HUNTINGTON     CLEAR     75  73  93 CALM      30.12S
CHARLESTON     CLEAR     75  72  90 CALM      30.14S
PINEVILLE*     CLEAR     70  67  90 MISG      30.24S FOG
BECKLEY        CLEAR     70  68  93 SE5       30.24F
BLUEFIELD      CLEAR     71  66  84 CALM      30.26F
LOGAN CO APT*    N/A     75  72  88 CALM      30.17S
$$

VAZ002-007-008-TNZ017-027-036-066-071-270600
...SOUTHWEST VIRGINIA/EAST TENNESSEE...

CITY           SKY/WX    TMP DP  RH WIND       PRES   REMARKS
WISE*          PTCLDY    72  61  68 CALM      30.25F
JONESVILLE*      N/A     72  70  94 CALM      30.18S
ABINGDON*      CLEAR     73  69  88 E3        30.21S
BRISTOL        CLOUDY    73  69  87 CALM      30.17R
MORRISTOWN*    CLEAR     79  70  73 CALM      30.13S
SEVIERVILLE*   CLEAR     73  70  88 CALM      30.12R
KNOXVILLE      PTCLDY    79  70  74 SW7       30.11R
OAK RIDGE      PTCLDY    77  73  87 CALM      30.13R
CROSSVILLE     MOCLDY    73  70  90 CALM      30.18R
NASHVILLE      CLOUDY    76  70  82 N5        30.10S
$$

...KEY TO REMARKS...
VSB - VISIBILITY IN MILES
WCI - WIND CHILL INDEX
HX  - HEAT INDEX

$$



USA.gov is the U.S. government's official web portal to all federal, state and local government web resources and services.